MDT,Max TemperatureF,Mean TemperatureF,Min TemperatureF,Max Dew PointF,MeanDew PointF,Min DewpointF,Max Humidity, Mean Humidity, Min Humidity, Max Sea Level PressureIn, Mean Sea Level PressureIn, Min Sea Level PressureIn, Max VisibilityMiles, Mean VisibilityMiles, Min VisibilityMiles, Max Wind SpeedMPH, Mean Wind SpeedMPH, Max Gust SpeedMPH,PrecipitationIn, CloudCover, Events, WindDirDegrees
2013-5-1,83,65,47,30,15,6,46,26,6,30.14,29.80,29.65,10,10,10,32,13,40,0.00,2,,212
2013-5-2,61,49,37,29,16,10,49,32,14,30.43,30.31,30.10,10,10,10,31,14,39,0.00,0,,96
2013-5-3,66,52,37,15,12,7,37,23,9,30.36,30.15,29.93,10,10,10,22,7,25,0.00,0,,152
2013-5-4,76,62,47,14,9,7,21,14,7,29.93,29.85,29.74,10,10,10,32,12,41,0.00,4,,123
2013-5-5,72,61,50,29,18,11,24,19,14,30.04,29.92,29.86,10,10,8,39,19,47,T,6,,111
2013-5-6,71,63,55,39,25,15,51,35,18,29.92,29.85,29.81,10,10,10,25,12,31,T,6,,206
2013-5-7,76,62,48,31,28,22,50,32,14,29.96,29.85,29.74,10,10,10,30,7,38,T,3,,181
2013-5-8,72,60,47,34,24,14,46,29,12,29.91,29.86,29.81,10,10,10,24,8,31,0.00,3,,285
2013-5-9,71,59,47,37,24,18,32,24,15,30.01,29.91,29.85,10,10,10,20,6,28,T,4,Rain,322
2013-5-10,70,61,51,45,36,29,68,48,28,30.21,30.06,29.97,10,10,10,29,11,37,T,5,Rain-Thunderstorm,105
2013-5-11,71,60,48,45,37,23,80,49,17,30.34,30.22,30.18,10,10,10,32,8,39,T,4,Rain,67
2013-5-12,80,65,49,36,31,25,56,35,14,30.26,30.14,30.02,10,10,10,22,5,40,T,2,Rain,21
2013-5-13,82,68,54,30,27,24,38,26,13,30.18,30.06,29.95,10,10,10,16,5,21,0.00,1,,171
2013-5-14,85,71,56,48,27,13,36,24,11,30.06,29.91,29.75,10,10,7,35,6,39,0.08,4,Rain-Thunderstorm,172
2013-5-15,88,74,60,48,36,20,64,38,11,29.91,29.78,29.66,10,10,10,26,7,40,T,6,,341
2013-5-16,86,70,54,24,18,9,32,19,5,29.96,29.77,29.67,10,10,10,23,8,37,0.00,1,,255
2013-5-17,87,72,57,25,18,12,19,13,7,30.00,29.79,29.66,10,10,4,39,8,59,0.00,4,,190
2013-5-18,78,66,54,30,19,12,28,19,10,29.98,29.77,29.66,10,10,10,32,9,41,0.00,5,,293
2013-5-19,75,66,57,34,29,19,40,27,14,29.92,29.77,29.71,10,10,10,31,13,44,0.00,5,,318
2013-5-20,77,64,50,34,26,7,46,27,7,29.87,29.80,29.68,10,10,10,30,11,38,0.00,4,,283
2013-5-21,81,64,47,33,28,20,46,29,11,29.96,29.83,29.71,10,10,10,20,6,25,0.00,2,,7
2013-5-22,86,69,51,25,17,11,26,16,6,29.89,29.72,29.62,10,10,10,20,7,29,0.00,2,,180
2013-5-23,92,75,57,50,19,5,44,25,5,29.93,29.73,29.63,10,10,7,38,10,44,0.00,2,,184
2013-5-24,88,74,60,50,30,18,49,29,8,29.92,29.82,29.73,10,10,10,23,10,31,0.00,1,,162
2013-5-25,92,75,57,36,18,11,22,14,5,29.92,29.81,29.68,10,10,10,22,8,32,0.00,2,,183
2013-5-26,88,73,58,15,12,6,17,11,5,29.88,29.81,29.69,10,10,10,20,6,33,0.00,5,,200
2013-5-27,85,72,59,20,11,5,12,9,5,29.86,29.76,29.67,10,10,10,28,8,32,0.00,6,,232
2013-5-28,85,69,52,18,12,5,22,14,5,29.70,29.60,29.45,10,10,10,23,7,30,0.00,3,,215
2013-5-29,82,72,62,35,22,10,34,21,7,29.75,29.55,29.46,10,10,10,32,13,40,0.00,3,,285
2013-5-30,88,72,55,27,20,15,21,15,8,29.75,29.66,29.60,10,10,10,32,10,49,0.00,1,,261
2013-5-31,88,76,64,37,25,6,32,20,7,30.01,29.73,29.66,10,10,10,29,15,62,0.00,0,,307